Year,Month,Day,Hour,Minute,Value (Times are PST for windspeed in km/hr)
2021,07,05,00,00,0.10
2021,07,05,00,01,0.30
2021,07,05,00,02,0.10
2021,07,05,00,03,0.50
2021,07,05,00,04,0.40
2021,07,05,00,05,0.10
2021,07,05,00,06,0.00
2021,07,05,00,07,0.30
2021,07,05,00,08,0.80
2021,07,05,00,09,0.10
2021,07,05,00,10,0.00
2021,07,05,00,11,0.00
2021,07,05,00,12,0.00
2021,07,05,00,13,0.00
2021,07,05,00,14,0.00
2021,07,05,00,15,0.00
2021,07,05,00,16,0.00
2021,07,05,00,17,0.00
2021,07,05,00,18,0.00
2021,07,05,00,19,0.00
2021,07,05,00,20,0.00
2021,07,05,00,21,0.00
2021,07,05,00,22,0.20
2021,07,05,00,23,0.50
2021,07,05,00,24,0.70
2021,07,05,00,25,0.00
2021,07,05,00,26,0.10
2021,07,05,00,27,0.10
2021,07,05,00,28,0.00
2021,07,05,00,29,0.00
2021,07,05,00,30,0.00
2021,07,05,00,31,0.00
2021,07,05,00,32,0.00
2021,07,05,00,33,0.00
2021,07,05,00,34,0.00
2021,07,05,00,35,0.00
2021,07,05,00,36,0.00
2021,07,05,00,37,0.00
2021,07,05,00,38,0.00
2021,07,05,00,39,0.00
2021,07,05,00,40,0.00
2021,07,05,00,41,0.10
2021,07,05,00,42,0.20
2021,07,05,00,43,0.00
2021,07,05,00,44,0.00
2021,07,05,00,45,0.00
2021,07,05,00,46,0.00
2021,07,05,00,47,0.00
2021,07,05,00,48,0.70
2021,07,05,00,49,0.10
2021,07,05,00,50,1.10
2021,07,05,00,51,0.70
2021,07,05,00,52,0.80
2021,07,05,00,53,0.80
2021,07,05,00,54,1.80
2021,07,05,00,55,1.20
2021,07,05,00,56,0.20
2021,07,05,00,57,0.00
2021,07,05,00,58,0.00
2021,07,05,00,59,0.10
2021,07,05,01,00,0.10
2021,07,05,01,01,0.20
2021,07,05,01,02,0.20
2021,07,05,01,03,0.90
2021,07,05,01,04,1.80
2021,07,05,01,05,1.90
2021,07,05,01,06,2.20
2021,07,05,01,07,2.10
2021,07,05,01,08,0.80
2021,07,05,01,09,0.00
2021,07,05,01,10,0.20
2021,07,05,01,11,0.20
2021,07,05,01,12,0.20
2021,07,05,01,13,0.90
2021,07,05,01,14,0.50
2021,07,05,01,15,0.30
2021,07,05,01,16,0.20
2021,07,05,01,17,0.10
2021,07,05,01,18,0.10
2021,07,05,01,19,0.10
2021,07,05,01,20,0.20
2021,07,05,01,21,0.20
2021,07,05,01,22,0.00
2021,07,05,01,23,0.50
2021,07,05,01,24,1.00
2021,07,05,01,25,1.70
2021,07,05,01,26,2.80
2021,07,05,01,27,3.20
2021,07,05,01,28,2.00
2021,07,05,01,29,1.00
2021,07,05,01,30,1.70
2021,07,05,01,31,2.60
2021,07,05,01,32,2.90
2021,07,05,01,33,2.50
2021,07,05,01,34,2.40
2021,07,05,01,35,0.00
2021,07,05,01,36,0.00
2021,07,05,01,37,0.00
2021,07,05,01,38,0.00
2021,07,05,01,39,0.00
2021,07,05,01,40,0.00
2021,07,05,01,41,0.00
2021,07,05,01,42,0.10
2021,07,05,01,43,0.20
2021,07,05,01,44,0.10
2021,07,05,01,45,0.20
2021,07,05,01,46,0.20
2021,07,05,01,47,0.70
2021,07,05,01,48,2.50
2021,07,05,01,49,4.50
2021,07,05,01,50,4.60
2021,07,05,01,51,4.70
2021,07,05,01,52,4.10
2021,07,05,01,53,3.00
2021,07,05,01,54,2.10
2021,07,05,01,55,2.30
2021,07,05,01,56,1.50
2021,07,05,01,57,0.30
2021,07,05,01,58,0.20
2021,07,05,01,59,0.10
2021,07,05,02,00,0.30
2021,07,05,02,01,1.00
2021,07,05,02,02,0.40
2021,07,05,02,03,0.70
2021,07,05,02,04,0.50
2021,07,05,02,05,0.50
2021,07,05,02,06,0.30
2021,07,05,02,07,0.50
2021,07,05,02,08,0.40
2021,07,05,02,09,0.70
2021,07,05,02,10,1.70
2021,07,05,02,11,1.00
2021,07,05,02,12,0.50
2021,07,05,02,13,2.20
2021,07,05,02,14,0.50
2021,07,05,02,15,1.80
2021,07,05,02,16,3.30
2021,07,05,02,17,1.40
2021,07,05,02,18,0.70
2021,07,05,02,19,0.50
2021,07,05,02,20,0.10
2021,07,05,02,21,0.00
2021,07,05,02,22,1.10
2021,07,05,02,23,0.30
2021,07,05,02,24,2.30
2021,07,05,02,25,3.40
2021,07,05,02,26,4.20
2021,07,05,02,27,3.90
2021,07,05,02,28,3.50
2021,07,05,02,29,0.60
2021,07,05,02,30,0.00
2021,07,05,02,31,0.00
2021,07,05,02,32,0.10
2021,07,05,02,33,0.00
2021,07,05,02,34,0.00
2021,07,05,02,35,0.10
2021,07,05,02,36,0.10
2021,07,05,02,37,0.10
2021,07,05,02,38,0.10
2021,07,05,02,39,0.20
2021,07,05,02,40,0.10
2021,07,05,02,41,0.20
2021,07,05,02,42,0.90
2021,07,05,02,43,0.60
2021,07,05,02,44,3.90
2021,07,05,02,45,4.70
2021,07,05,02,46,3.00
2021,07,05,02,47,2.80
2021,07,05,02,48,2.70
2021,07,05,02,49,1.70
2021,07,05,02,50,0.90
2021,07,05,02,51,1.90
2021,07,05,02,52,3.70
2021,07,05,02,53,4.60
2021,07,05,02,54,4.10
2021,07,05,02,55,2.40
2021,07,05,02,56,3.10
2021,07,05,02,57,2.00
2021,07,05,02,58,0.70
2021,07,05,02,59,1.10
2021,07,05,03,00,3.40
2021,07,05,03,01,2.60
2021,07,05,03,02,3.70
2021,07,05,03,03,5.00
2021,07,05,03,04,0.50
2021,07,05,03,05,0.40
2021,07,05,03,06,0.00
2021,07,05,03,07,0.20
2021,07,05,03,08,0.20
2021,07,05,03,09,1.30
2021,07,05,03,10,4.30
2021,07,05,03,11,4.00
2021,07,05,03,12,0.40
2021,07,05,03,13,4.40
2021,07,05,03,14,1.20
2021,07,05,03,15,0.30
2021,07,05,03,16,1.80
2021,07,05,03,17,1.20
2021,07,05,03,18,0.10
2021,07,05,03,19,1.40
2021,07,05,03,20,0.20
2021,07,05,03,21,0.10
2021,07,05,03,22,0.00
2021,07,05,03,23,0.10
2021,07,05,03,24,0.00
2021,07,05,03,25,0.10
2021,07,05,03,26,0.20
2021,07,05,03,27,0.00
2021,07,05,03,28,0.00
2021,07,05,03,29,0.10
2021,07,05,03,30,0.00
2021,07,05,03,31,0.00
2021,07,05,03,32,0.00
2021,07,05,03,33,0.00
2021,07,05,03,34,0.00
2021,07,05,03,35,0.00
2021,07,05,03,36,0.00
2021,07,05,03,37,0.00
2021,07,05,03,38,0.00
2021,07,05,03,39,0.00
2021,07,05,03,40,0.00
2021,07,05,03,41,0.00
2021,07,05,03,42,0.00
2021,07,05,03,43,2.80
2021,07,05,03,44,2.70
2021,07,05,03,45,4.40
2021,07,05,03,46,3.50
2021,07,05,03,47,2.40
2021,07,05,03,48,1.50
2021,07,05,03,49,1.50
2021,07,05,03,50,0.20
2021,07,05,03,51,0.10
2021,07,05,03,52,0.20
2021,07,05,03,53,0.50
2021,07,05,03,54,0.80
2021,07,05,03,55,1.50
2021,07,05,03,56,1.40
2021,07,05,03,57,2.40
2021,07,05,03,58,3.60
2021,07,05,03,59,4.10
2021,07,05,04,00,4.00
2021,07,05,04,01,2.50
2021,07,05,04,02,3.60
2021,07,05,04,03,1.90
2021,07,05,04,04,0.70
2021,07,05,04,08,0.00
2021,07,05,04,09,0.10
2021,07,05,04,10,0.10
2021,07,05,04,11,0.10
2021,07,05,04,12,0.20
2021,07,05,04,13,1.20
2021,07,05,04,14,1.30
2021,07,05,04,15,0.20
2021,07,05,04,16,1.50
2021,07,05,04,17,2.50
2021,07,05,04,18,1.00
2021,07,05,04,19,1.40
2021,07,05,04,20,0.30
2021,07,05,04,21,0.70
2021,07,05,04,22,0.40
2021,07,05,04,23,0.10
2021,07,05,04,24,0.00
2021,07,05,04,25,0.20
2021,07,05,04,26,0.10
2021,07,05,04,27,0.00
2021,07,05,04,28,0.10
2021,07,05,04,29,0.30
2021,07,05,04,30,0.30
2021,07,05,04,31,0.20
2021,07,05,04,32,0.10
2021,07,05,04,33,0.20
2021,07,05,04,34,0.10
2021,07,05,04,35,0.50
2021,07,05,04,36,0.80
2021,07,05,04,37,0.30
2021,07,05,04,38,0.10
2021,07,05,04,39,0.00
2021,07,05,04,40,0.20
2021,07,05,04,41,0.30
2021,07,05,04,42,0.20
2021,07,05,04,43,0.60
2021,07,05,04,44,0.60
2021,07,05,04,45,0.20
2021,07,05,04,46,0.40
2021,07,05,04,47,0.20
2021,07,05,04,48,0.20
2021,07,05,04,49,0.10
2021,07,05,04,50,0.20
2021,07,05,04,51,0.40
2021,07,05,04,52,0.10
2021,07,05,04,53,0.20
2021,07,05,04,54,0.20
2021,07,05,04,55,0.00
2021,07,05,04,56,0.00
2021,07,05,04,57,0.00
2021,07,05,04,58,0.00
2021,07,05,04,59,0.00
2021,07,05,05,00,0.00
2021,07,05,05,01,0.00
2021,07,05,05,02,0.20
2021,07,05,05,03,0.80
2021,07,05,05,04,0.70
2021,07,05,05,05,0.50
2021,07,05,05,06,0.40
2021,07,05,05,07,0.10
2021,07,05,05,08,0.00
2021,07,05,05,09,0.00
2021,07,05,05,10,0.10
2021,07,05,05,11,0.10
2021,07,05,05,12,0.00
2021,07,05,05,13,0.40
2021,07,05,05,14,0.20
2021,07,05,05,15,0.30
2021,07,05,05,16,0.20
2021,07,05,05,17,0.30
2021,07,05,05,18,1.40
2021,07,05,05,19,0.70
2021,07,05,05,20,0.10
2021,07,05,05,21,0.00
2021,07,05,05,22,0.00
2021,07,05,05,23,0.00
2021,07,05,05,24,0.00
2021,07,05,05,25,0.00
2021,07,05,05,26,0.00
2021,07,05,05,27,0.00
2021,07,05,05,28,0.00
2021,07,05,05,29,0.00
2021,07,05,05,30,0.00
2021,07,05,05,31,0.00
2021,07,05,05,32,0.00
2021,07,05,05,33,0.00
2021,07,05,05,34,0.00
2021,07,05,05,35,0.00
2021,07,05,05,36,0.00
2021,07,05,05,37,0.00
2021,07,05,05,38,0.10
2021,07,05,05,39,0.00
2021,07,05,05,40,0.00
2021,07,05,05,41,0.00
2021,07,05,05,42,0.00
2021,07,05,05,43,0.00
2021,07,05,05,44,0.00
2021,07,05,05,45,0.00
2021,07,05,05,46,0.00
2021,07,05,05,47,0.00
2021,07,05,05,48,0.00
2021,07,05,05,49,0.10
2021,07,05,05,50,0.00
2021,07,05,05,51,0.00
2021,07,05,05,52,0.00
2021,07,05,05,53,0.00
2021,07,05,05,54,0.00
2021,07,05,05,55,0.00
2021,07,05,05,56,0.00
2021,07,05,05,57,0.00
2021,07,05,05,58,0.00
2021,07,05,05,59,0.00
2021,07,05,06,00,0.00
2021,07,05,06,01,0.00
2021,07,05,06,02,0.00
2021,07,05,06,03,0.00
2021,07,05,06,04,0.00
2021,07,05,06,05,0.00
2021,07,05,06,06,0.00
2021,07,05,06,07,0.00
2021,07,05,06,08,0.00
2021,07,05,06,09,0.00
2021,07,05,06,10,0.00
2021,07,05,06,11,0.00
2021,07,05,06,12,0.00
2021,07,05,06,13,0.50
2021,07,05,06,14,0.60
2021,07,05,06,15,0.10
2021,07,05,06,16,0.00
2021,07,05,06,17,0.00
2021,07,05,06,18,0.00
2021,07,05,06,19,0.00
2021,07,05,06,20,0.40
2021,07,05,06,21,0.40
2021,07,05,06,22,0.60
2021,07,05,06,23,0.90
2021,07,05,06,24,0.70
2021,07,05,06,25,0.20
2021,07,05,06,26,0.70
2021,07,05,06,27,0.10
2021,07,05,06,28,0.00
2021,07,05,06,29,0.00
2021,07,05,06,30,0.00
2021,07,05,06,31,0.00
2021,07,05,06,32,0.00
2021,07,05,06,33,0.00
2021,07,05,06,34,0.00
2021,07,05,06,35,0.00
2021,07,05,06,36,0.00
2021,07,05,06,37,0.00
2021,07,05,06,38,0.00
2021,07,05,06,39,0.00
2021,07,05,06,40,0.00
2021,07,05,06,41,0.00
2021,07,05,06,42,0.00
2021,07,05,06,43,0.00
2021,07,05,06,44,0.00
2021,07,05,06,45,0.00
2021,07,05,06,46,0.00
2021,07,05,06,47,0.00
2021,07,05,06,48,0.00
2021,07,05,06,49,0.00
2021,07,05,06,50,0.00
2021,07,05,06,51,0.00
2021,07,05,06,52,0.00
2021,07,05,06,53,0.00
2021,07,05,06,54,0.00
2021,07,05,06,55,0.00
2021,07,05,06,56,0.00
2021,07,05,06,57,0.00
2021,07,05,06,58,0.00
2021,07,05,06,59,0.00
2021,07,05,07,00,0.00
2021,07,05,07,01,0.00
2021,07,05,07,02,0.00
2021,07,05,07,03,0.00
2021,07,05,07,04,0.00
2021,07,05,07,05,0.00
2021,07,05,07,06,0.00
2021,07,05,07,07,0.00
2021,07,05,07,08,0.00
2021,07,05,07,09,0.00
2021,07,05,07,10,0.00
2021,07,05,07,11,0.00
2021,07,05,07,12,0.00
2021,07,05,07,13,0.00
2021,07,05,07,14,0.00
2021,07,05,07,15,0.00
2021,07,05,07,16,0.00
2021,07,05,07,17,0.00
2021,07,05,07,18,0.00
2021,07,05,07,19,0.00
2021,07,05,07,20,0.00
2021,07,05,07,21,0.00
2021,07,05,07,22,0.00
2021,07,05,07,23,0.00
2021,07,05,07,24,0.00
2021,07,05,07,25,0.00
2021,07,05,07,26,0.00
2021,07,05,07,27,0.00
2021,07,05,07,28,0.00
2021,07,05,07,29,0.00
2021,07,05,07,30,0.00
2021,07,05,07,31,0.00
2021,07,05,07,32,0.00
2021,07,05,07,33,0.00
2021,07,05,07,34,0.00
2021,07,05,07,35,0.00
2021,07,05,07,36,0.80
2021,07,05,07,37,0.50
2021,07,05,07,38,1.60
2021,07,05,07,39,0.70
2021,07,05,07,40,0.10
2021,07,05,07,41,0.10
2021,07,05,07,42,0.00
2021,07,05,07,43,0.00
2021,07,05,07,44,0.00
2021,07,05,07,45,0.00
2021,07,05,07,46,0.00
2021,07,05,07,47,0.00
2021,07,05,07,48,0.60
2021,07,05,07,49,0.20
2021,07,05,07,50,0.10
2021,07,05,07,51,0.30
2021,07,05,07,52,0.20
2021,07,05,07,53,1.60
2021,07,05,07,54,1.10
2021,07,05,07,55,0.00
2021,07,05,07,56,0.00
2021,07,05,07,57,0.00
2021,07,05,07,58,0.00
2021,07,05,07,59,2.50
2021,07,05,08,00,2.70
2021,07,05,08,01,5.00
2021,07,05,08,02,3.20
2021,07,05,08,03,3.50
2021,07,05,08,04,3.10
2021,07,05,08,05,0.20
2021,07,05,08,06,1.00
2021,07,05,08,07,0.30
2021,07,05,08,08,0.40
2021,07,05,08,09,0.90
2021,07,05,08,10,0.00
2021,07,05,08,11,0.80
2021,07,05,08,12,2.60
2021,07,05,08,13,0.50
2021,07,05,08,14,0.70
2021,07,05,08,15,1.50
2021,07,05,08,16,1.10
2021,07,05,08,17,2.30
2021,07,05,08,18,0.60
2021,07,05,08,19,0.20
2021,07,05,08,20,0.00
2021,07,05,08,21,0.40
2021,07,05,08,22,0.00
2021,07,05,08,23,0.00
2021,07,05,08,24,0.50
2021,07,05,08,25,0.20
2021,07,05,08,26,1.20
2021,07,05,08,27,0.50
2021,07,05,08,28,0.00
2021,07,05,08,29,0.00
2021,07,05,08,30,0.00
2021,07,05,08,31,0.10
2021,07,05,08,32,0.20
2021,07,05,08,33,0.10
2021,07,05,08,34,0.00
2021,07,05,08,35,0.00
2021,07,05,08,36,0.00
2021,07,05,08,37,0.00
2021,07,05,08,38,0.00
2021,07,05,08,39,3.50
2021,07,05,08,40,2.80
2021,07,05,08,41,1.90
2021,07,05,08,42,0.70
2021,07,05,08,43,0.30
2021,07,05,08,44,1.90
2021,07,05,08,45,0.50
2021,07,05,08,46,0.00
2021,07,05,08,47,0.20
2021,07,05,08,48,0.00
2021,07,05,08,49,0.00
2021,07,05,08,50,0.30
2021,07,05,08,51,0.80
2021,07,05,08,52,2.30
2021,07,05,08,53,2.60
2021,07,05,08,54,0.00
2021,07,05,08,55,1.00
2021,07,05,08,56,0.00
2021,07,05,08,57,0.00
2021,07,05,08,58,0.70
2021,07,05,08,59,3.80
2021,07,05,09,00,2.10
2021,07,05,09,01,0.60
2021,07,05,09,02,2.70
2021,07,05,09,03,0.20
2021,07,05,09,04,0.20
2021,07,05,09,05,0.60
2021,07,05,09,06,2.40
2021,07,05,09,07,0.20
2021,07,05,09,08,0.60
2021,07,05,09,09,3.10
2021,07,05,09,10,2.00
2021,07,05,09,11,3.70
2021,07,05,09,12,3.00
2021,07,05,09,13,0.60
2021,07,05,09,14,3.80
2021,07,05,09,15,4.00
2021,07,05,09,16,6.40
2021,07,05,09,17,4.90
2021,07,05,09,18,5.20
2021,07,05,09,19,3.20
2021,07,05,09,20,1.20
2021,07,05,09,21,1.70
2021,07,05,09,22,2.30
2021,07,05,09,23,3.80
2021,07,05,09,24,3.40
2021,07,05,09,25,5.20
2021,07,05,09,26,4.10
2021,07,05,09,27,1.30
2021,07,05,09,28,0.90
2021,07,05,09,29,2.60
2021,07,05,09,30,3.10
2021,07,05,09,31,4.80
2021,07,05,09,32,3.00
2021,07,05,09,33,2.20
2021,07,05,09,34,2.80
2021,07,05,09,35,4.90
2021,07,05,09,36,5.50
2021,07,05,09,37,5.10
2021,07,05,09,38,4.90
2021,07,05,09,39,4.60
2021,07,05,09,40,1.00
2021,07,05,09,41,2.80
2021,07,05,09,42,4.80
2021,07,05,09,43,6.20
2021,07,05,09,44,6.00
2021,07,05,09,45,3.60
2021,07,05,09,46,7.20
2021,07,05,09,47,5.60
2021,07,05,09,48,3.00
2021,07,05,09,49,1.30
2021,07,05,09,50,2.90
2021,07,05,09,51,2.30
2021,07,05,09,52,2.70
2021,07,05,09,53,0.80
2021,07,05,09,54,0.60
2021,07,05,09,55,4.90
2021,07,05,09,56,3.90
2021,07,05,09,57,1.10
2021,07,05,09,58,1.70
2021,07,05,09,59,0.10
2021,07,05,10,00,3.50
2021,07,05,10,01,1.10
2021,07,05,10,02,5.00
2021,07,05,10,03,1.20
2021,07,05,10,04,0.50
2021,07,05,10,05,1.00
2021,07,05,10,06,1.00
2021,07,05,10,07,1.60
2021,07,05,10,08,2.10
2021,07,05,10,09,7.80
2021,07,05,10,10,3.90
2021,07,05,10,11,2.90
2021,07,05,10,12,0.40
2021,07,05,10,13,5.10
2021,07,05,10,14,4.30
2021,07,05,10,15,1.30
2021,07,05,10,16,0.10
2021,07,05,10,17,3.20
2021,07,05,10,18,4.20
2021,07,05,10,19,2.40
2021,07,05,10,20,6.20
2021,07,05,10,21,7.20
2021,07,05,10,22,7.80
2021,07,05,10,23,6.30
2021,07,05,10,24,6.60
2021,07,05,10,25,5.30
2021,07,05,10,26,1.90
2021,07,05,10,27,6.90
2021,07,05,10,28,5.20
2021,07,05,10,29,5.90
2021,07,05,10,30,7.00
2021,07,05,10,31,5.50
2021,07,05,10,32,5.70
2021,07,05,10,33,7.00
2021,07,05,10,34,8.50
2021,07,05,10,35,7.40
2021,07,05,10,36,9.40
2021,07,05,10,37,8.80
2021,07,05,10,38,7.20
2021,07,05,10,39,4.80
2021,07,05,10,40,5.60
2021,07,05,10,41,6.80
2021,07,05,10,42,7.80
2021,07,05,10,43,7.00
2021,07,05,10,44,8.20
2021,07,05,10,45,4.00
2021,07,05,10,46,2.60
2021,07,05,10,47,2.10
2021,07,05,10,48,3.90
2021,07,05,10,49,3.60
2021,07,05,10,50,2.80
2021,07,05,10,51,0.90
2021,07,05,10,52,3.30
2021,07,05,10,53,3.10
2021,07,05,10,54,3.10
2021,07,05,10,55,1.80
2021,07,05,10,56,2.50
2021,07,05,10,57,7.10
2021,07,05,10,58,8.10
2021,07,05,10,59,6.50
2021,07,05,11,00,8.10
2021,07,05,11,01,7.40
2021,07,05,11,02,6.00
2021,07,05,11,03,2.80
2021,07,05,11,04,7.80
2021,07,05,11,05,7.00
2021,07,05,11,06,5.70
2021,07,05,11,07,6.10
2021,07,05,11,08,10.60
2021,07,05,11,09,6.40
2021,07,05,11,10,7.20
2021,07,05,11,11,3.30
2021,07,05,11,12,6.70
2021,07,05,11,13,8.80
2021,07,05,11,14,5.80
2021,07,05,11,15,9.50
2021,07,05,11,16,1.70
2021,07,05,11,17,8.60
2021,07,05,11,18,10.00
2021,07,05,11,19,2.90
2021,07,05,11,20,6.40
2021,07,05,11,21,9.00
2021,07,05,11,22,7.00
2021,07,05,11,23,4.30
2021,07,05,11,24,1.40
2021,07,05,11,25,3.40
2021,07,05,11,26,2.70
2021,07,05,11,27,4.50
2021,07,05,11,28,9.00
2021,07,05,11,29,4.30
2021,07,05,11,30,4.00
2021,07,05,11,31,8.80
2021,07,05,11,32,6.60
2021,07,05,11,33,6.90
2021,07,05,11,34,7.40
2021,07,05,11,35,5.20
2021,07,05,11,36,5.10
2021,07,05,11,37,6.10
2021,07,05,11,38,4.80
2021,07,05,11,39,5.10
2021,07,05,11,40,6.70
2021,07,05,11,41,6.80
2021,07,05,11,42,9.00
2021,07,05,11,43,9.70
2021,07,05,11,44,7.10
2021,07,05,11,45,6.70
2021,07,05,11,46,11.20
2021,07,05,11,47,9.70
2021,07,05,11,48,7.70
2021,07,05,11,49,4.10
2021,07,05,11,50,6.40
2021,07,05,11,51,4.00
2021,07,05,11,52,3.10
2021,07,05,11,53,2.50
2021,07,05,11,54,7.80
2021,07,05,11,55,3.90
2021,07,05,11,56,5.30
2021,07,05,11,57,1.90
2021,07,05,11,58,1.00
2021,07,05,11,59,4.50
2021,07,05,12,00,9.00
2021,07,05,12,01,5.90
2021,07,05,12,02,9.00
2021,07,05,12,03,10.00
2021,07,05,12,04,4.70
2021,07,05,12,05,12.70
2021,07,05,12,06,9.40
2021,07,05,12,07,4.90
2021,07,05,12,08,5.60
2021,07,05,12,09,5.80
2021,07,05,12,10,5.90
2021,07,05,12,11,5.60
2021,07,05,12,12,10.50
2021,07,05,12,13,2.20
2021,07,05,12,14,2.10
2021,07,05,12,15,7.40
2021,07,05,12,16,6.30
2021,07,05,12,17,5.00
2021,07,05,12,18,10.80
2021,07,05,12,19,4.90
2021,07,05,12,20,7.50
2021,07,05,12,21,6.60
2021,07,05,12,22,10.60
2021,07,05,12,23,10.80
2021,07,05,12,24,9.00
2021,07,05,12,25,10.10
2021,07,05,12,26,11.70
2021,07,05,12,27,8.60
2021,07,05,12,28,1.30
2021,07,05,12,29,10.10
2021,07,05,12,30,9.10
2021,07,05,12,31,12.70
2021,07,05,12,32,14.40
2021,07,05,12,33,12.60
2021,07,05,12,34,14.40
2021,07,05,12,35,13.50
2021,07,05,12,36,14.30
2021,07,05,12,37,10.60
2021,07,05,12,38,10.90
2021,07,05,12,39,12.20
2021,07,05,12,40,13.30
2021,07,05,12,41,10.50
2021,07,05,12,42,12.70
2021,07,05,12,43,7.20
2021,07,05,12,44,8.10
2021,07,05,12,45,7.60
2021,07,05,12,46,10.80
2021,07,05,12,47,8.30
2021,07,05,12,48,6.90
2021,07,05,12,49,5.80
2021,07,05,12,50,9.40
2021,07,05,12,51,10.60
2021,07,05,12,52,5.70
2021,07,05,12,53,7.10
2021,07,05,12,54,8.40
2021,07,05,12,55,6.10
2021,07,05,12,56,6.90
2021,07,05,12,57,9.70
2021,07,05,12,58,10.30
2021,07,05,12,59,8.90
2021,07,05,13,00,8.80
2021,07,05,13,01,4.40
2021,07,05,13,02,8.50
2021,07,05,13,03,7.80
2021,07,05,13,04,9.10
2021,07,05,13,05,7.50
2021,07,05,13,06,3.50
2021,07,05,13,07,4.80
2021,07,05,13,08,5.20
2021,07,05,13,09,6.20
2021,07,05,13,10,2.80
2021,07,05,13,11,4.30
2021,07,05,13,12,3.80
2021,07,05,13,13,6.90
2021,07,05,13,14,6.20
2021,07,05,13,15,8.60
2021,07,05,13,16,5.50
2021,07,05,13,17,5.80
2021,07,05,13,18,9.70
2021,07,05,13,19,6.70
2021,07,05,13,20,5.70
2021,07,05,13,21,6.30
2021,07,05,13,22,9.90
2021,07,05,13,23,4.20
2021,07,05,13,24,3.40
2021,07,05,13,25,5.20
2021,07,05,13,26,6.10
2021,07,05,13,27,7.40
2021,07,05,13,28,5.30
2021,07,05,13,29,9.40
2021,07,05,13,30,5.20
2021,07,05,13,31,8.80
2021,07,05,13,32,8.70
2021,07,05,13,33,4.50
2021,07,05,13,34,6.60
2021,07,05,13,35,8.50
2021,07,05,13,36,11.00
2021,07,05,13,37,11.10
2021,07,05,13,38,6.90
2021,07,05,13,39,6.00
2021,07,05,13,40,5.30
2021,07,05,13,41,4.70
2021,07,05,13,42,8.30
2021,07,05,13,43,7.60
2021,07,05,13,44,6.30
2021,07,05,13,45,8.00
2021,07,05,13,46,3.10
2021,07,05,13,47,2.80
2021,07,05,13,48,3.10
2021,07,05,13,49,4.20
2021,07,05,13,50,4.50
2021,07,05,13,51,6.80
2021,07,05,13,52,7.40
2021,07,05,13,53,12.30
2021,07,05,13,54,9.20
2021,07,05,13,55,9.00
2021,07,05,13,56,13.00
2021,07,05,13,57,12.90
2021,07,05,13,58,9.60
2021,07,05,13,59,10.40
2021,07,05,14,00,14.90
2021,07,05,14,01,15.60
2021,07,05,14,02,14.40
2021,07,05,14,03,15.40
2021,07,05,14,04,12.10
2021,07,05,14,05,15.10
2021,07,05,14,06,12.50
2021,07,05,14,07,15.60
2021,07,05,14,08,14.10
2021,07,05,14,09,13.40
2021,07,05,14,10,10.50
2021,07,05,14,11,11.60
2021,07,05,14,12,9.40
2021,07,05,14,13,12.70
2021,07,05,14,14,10.00
2021,07,05,14,15,12.20
2021,07,05,14,16,15.20
2021,07,05,14,17,8.00
2021,07,05,14,18,12.10
2021,07,05,14,19,11.10
2021,07,05,14,20,7.70
2021,07,05,14,21,8.10
2021,07,05,14,22,12.00
2021,07,05,14,23,11.60
2021,07,05,14,24,13.90
2021,07,05,14,25,11.70
2021,07,05,14,26,14.40
2021,07,05,14,27,14.50
2021,07,05,14,28,14.30
2021,07,05,14,29,14.10
2021,07,05,14,30,8.70
2021,07,05,14,31,13.00
2021,07,05,14,32,10.40
2021,07,05,14,33,10.70
2021,07,05,14,34,11.60
2021,07,05,14,35,7.40
2021,07,05,14,36,6.50
2021,07,05,14,37,10.30
2021,07,05,14,38,10.40
2021,07,05,14,39,12.70
2021,07,05,14,40,14.10
2021,07,05,14,41,16.10
2021,07,05,14,42,13.80
2021,07,05,14,43,10.20
2021,07,05,14,44,11.90
2021,07,05,14,45,8.60
2021,07,05,14,46,5.90
2021,07,05,14,47,12.40
2021,07,05,14,48,10.10
2021,07,05,14,49,9.50
2021,07,05,14,50,9.10
2021,07,05,14,51,3.70
2021,07,05,14,52,8.40
2021,07,05,14,53,7.30
2021,07,05,14,54,10.10
2021,07,05,14,55,8.10
2021,07,05,14,56,7.50
2021,07,05,14,57,6.40
2021,07,05,14,58,5.00
2021,07,05,14,59,4.80
2021,07,05,15,00,6.00
2021,07,05,15,01,9.90
2021,07,05,15,02,8.80
2021,07,05,15,03,10.70
2021,07,05,15,04,12.30
2021,07,05,15,05,9.20
2021,07,05,15,06,8.90
2021,07,05,15,07,9.20
2021,07,05,15,08,9.40
2021,07,05,15,09,10.50
2021,07,05,15,10,8.30
2021,07,05,15,11,10.10
2021,07,05,15,12,6.20
2021,07,05,15,13,5.00
2021,07,05,15,14,8.90
2021,07,05,15,15,9.30
2021,07,05,15,16,11.30
2021,07,05,15,17,10.40
2021,07,05,15,18,9.30
2021,07,05,15,19,10.30
2021,07,05,15,20,8.50
2021,07,05,15,21,9.80
2021,07,05,15,22,9.50
2021,07,05,15,23,7.90
2021,07,05,15,24,7.80
2021,07,05,15,25,5.70
2021,07,05,15,26,9.30
2021,07,05,15,27,7.30
2021,07,05,15,28,10.10
2021,07,05,15,29,9.90
2021,07,05,15,30,8.70
2021,07,05,15,31,4.90
2021,07,05,15,32,6.20
2021,07,05,15,33,7.80
2021,07,05,15,34,4.90
2021,07,05,15,35,4.00
2021,07,05,15,36,4.50
2021,07,05,15,37,6.10
2021,07,05,15,38,2.80
2021,07,05,15,39,7.50
2021,07,05,15,40,2.70
2021,07,05,15,41,0.40
2021,07,05,15,42,1.60
2021,07,05,15,43,5.00
2021,07,05,15,44,4.90
2021,07,05,15,45,3.80
2021,07,05,15,46,2.10
2021,07,05,15,47,1.70
2021,07,05,15,48,3.10
2021,07,05,15,49,3.90
2021,07,05,15,50,3.50
2021,07,05,15,51,6.20
2021,07,05,15,52,3.80
2021,07,05,15,53,5.60
2021,07,05,15,54,2.00
2021,07,05,15,55,3.60
2021,07,05,15,56,4.50
2021,07,05,15,57,3.80
2021,07,05,15,58,9.00
2021,07,05,15,59,4.30
2021,07,05,16,00,4.50
2021,07,05,16,01,8.10
2021,07,05,16,02,10.00
2021,07,05,16,03,5.90
2021,07,05,16,04,7.60
2021,07,05,16,05,3.20
2021,07,05,16,06,2.50
2021,07,05,16,07,3.70
2021,07,05,16,08,3.80
2021,07,05,16,09,6.60
2021,07,05,16,10,6.00
2021,07,05,16,11,4.60
2021,07,05,16,12,6.40
2021,07,05,16,13,3.30
2021,07,05,16,14,3.90
2021,07,05,16,15,4.50
2021,07,05,16,16,3.80
2021,07,05,16,17,8.00
2021,07,05,16,18,6.90
2021,07,05,16,19,6.40
2021,07,05,16,20,4.30
2021,07,05,16,21,3.00
2021,07,05,16,22,6.10
2021,07,05,16,23,9.20
2021,07,05,16,24,7.50
2021,07,05,16,25,7.40
2021,07,05,16,26,5.60
2021,07,05,16,27,9.80
2021,07,05,16,28,9.60
2021,07,05,16,29,6.50
2021,07,05,16,30,6.20
2021,07,05,16,31,9.20
2021,07,05,16,32,8.10
2021,07,05,16,33,7.10
2021,07,05,16,34,3.90
2021,07,05,16,35,5.60
2021,07,05,16,36,6.70
2021,07,05,16,37,6.40
2021,07,05,16,38,6.10
2021,07,05,16,39,4.20
2021,07,05,16,40,4.50
2021,07,05,16,41,3.70
2021,07,05,16,42,6.40
2021,07,05,16,43,5.20
2021,07,05,16,44,8.00
2021,07,05,16,45,5.60
2021,07,05,16,46,5.90
2021,07,05,16,47,5.70
2021,07,05,16,48,5.80
2021,07,05,16,49,5.90
2021,07,05,16,50,5.80
2021,07,05,16,51,5.10
2021,07,05,16,52,6.50
2021,07,05,16,53,6.70
2021,07,05,16,54,5.70
2021,07,05,16,55,6.00
2021,07,05,16,56,7.30
2021,07,05,16,57,5.80
2021,07,05,16,58,6.70
2021,07,05,16,59,10.70
2021,07,05,17,00,9.50
2021,07,05,17,01,10.30
2021,07,05,17,02,13.30
2021,07,05,17,03,10.10
2021,07,05,17,04,8.20
2021,07,05,17,05,5.90
2021,07,05,17,06,7.00
2021,07,05,17,07,5.50
2021,07,05,17,08,6.40
2021,07,05,17,09,6.30
2021,07,05,17,10,5.70
2021,07,05,17,11,2.90
2021,07,05,17,12,4.80
2021,07,05,17,13,5.40
2021,07,05,17,14,4.90
2021,07,05,17,15,6.40
2021,07,05,17,16,6.80
2021,07,05,17,17,6.40
2021,07,05,17,18,4.80
2021,07,05,17,19,2.40
2021,07,05,17,20,3.80
2021,07,05,17,21,6.40
2021,07,05,17,22,6.40
2021,07,05,17,23,5.90
2021,07,05,17,24,4.40
2021,07,05,17,25,4.20
2021,07,05,17,26,6.00
2021,07,05,17,27,6.30
2021,07,05,17,28,5.80
2021,07,05,17,29,4.50
2021,07,05,17,30,4.80
2021,07,05,17,31,5.40
2021,07,05,17,32,5.90
2021,07,05,17,33,4.60
2021,07,05,17,34,5.10
2021,07,05,17,35,6.30
2021,07,05,17,36,9.00
2021,07,05,17,37,8.00
2021,07,05,17,38,5.10
2021,07,05,17,39,9.20
2021,07,05,17,40,3.80
2021,07,05,17,41,3.60
2021,07,05,17,42,6.20
2021,07,05,17,43,5.90
2021,07,05,17,44,7.80
2021,07,05,17,45,4.80
2021,07,05,17,46,5.30
2021,07,05,17,47,4.80
2021,07,05,17,48,4.40
2021,07,05,17,49,6.10
2021,07,05,17,50,4.40
2021,07,05,17,51,4.30
2021,07,05,17,52,7.90
2021,07,05,17,53,5.50
2021,07,05,17,54,6.40
2021,07,05,17,55,4.40
2021,07,05,17,56,4.10
2021,07,05,17,57,4.30
2021,07,05,17,58,3.40
2021,07,05,17,59,5.10
2021,07,05,18,00,3.20
2021,07,05,18,01,5.60
2021,07,05,18,02,5.10
2021,07,05,18,03,3.20
2021,07,05,18,04,5.20
2021,07,05,18,05,8.00